Location: Krakow
(50.0830°N, 19.9170°E)
Time: 04:51:41
(UTC+01:00)

Courier 1B Rocket - Pass Details

Date: 18 December 2023
Orbit: 920 x 1202 km, 28.2° (Epoch: 01 March)

Event Time Altitude Azimuth Distance (km) Brightness Sun altitude
Rises 07:44:41 0° 225° (SW) 4,078 8.2 0.4°
Reaches altitude 10° 07:49:41 10° 198° (SSW) 3,082 7.9 1.1°
Maximum altitude 07:52:30 12° 176° (S) 2,879 8.2 1.4°
Drops below altitude 10° 07:55:17 10° 154° (SSE) 3,025 9.0 1.7°
Sets 08:00:05 0° 127° (SE) 3,921 11.2 2.3°
